LVMBT SARC-SASA

Flight info

Callsign LVMBT
Flight time 1h 17m
Altitude 43000
Route GUKA1M GUKAS DCT SOVLI UZ120 MUDUL UT677 ILPAR PAR2M
Aircraft C700/M-SBDGHM1RWXY/LB2

Departure

Time 2026-04-24 18:56
Airport Corrientes Airport (SARC)

Arrival

Time 2026-04-24 20:14
Airport Martín Miguel de Güemes International Airport (SASA)
Time Latitude Longitude Altitude Speed Heading
2026-04-24 18:54 -27.43557 -58.76027 209 ft 9 kts
2026-04-24 18:55 -27.43516 -58.76019 206 ft 2 kts 155°
2026-04-24 18:55 -27.43524 -58.76019 211 ft 1 kts 184°
2026-04-24 18:55 -27.43542 -58.76025 210 ft 6 kts 190°
2026-04-24 18:56 -27.43627 -58.76038 207 ft 25 kts 187°
2026-04-24 18:56 -27.44062 -58.76104 209 ft 104 kts 187°
2026-04-24 18:56 -27.45025 -58.76250 466 ft 167 kts 187°
2026-04-24 18:56 -27.46295 -58.76442 1417 ft 195 kts 187°
2026-04-24 18:57 -27.47691 -58.76569 2741 ft 204 kts 180°
2026-04-24 18:57 -27.49194 -58.76516 3923 ft 232 kts 180°
2026-04-24 18:57 -27.50911 -58.76525 5036 ft 260 kts 185°
2026-04-24 18:57 -27.52764 -58.76634 6451 ft 275 kts 189°
2026-04-24 18:58 -27.54736 -58.76788 6994 ft 294 kts 188°
2026-04-24 18:58 -27.56710 -58.77212 7005 ft 285 kts 204°
2026-04-24 18:58 -27.58492 -58.78134 7009 ft 279 kts 216°
2026-04-24 18:58 -27.60010 -58.79450 7012 ft 273 kts 228°
2026-04-24 18:59 -27.61225 -58.81073 7012 ft 269 kts 240°
2026-04-24 18:59 -27.62084 -58.82922 7015 ft 264 kts 252°
2026-04-24 18:59 -27.62571 -58.84904 7016 ft 262 kts 263°
2026-04-24 18:59 -27.62686 -58.86944 7018 ft 260 kts 274°
2026-04-24 19:00 -27.62598 -58.88979 7022 ft 260 kts 274°
2026-04-24 19:00 -27.62561 -58.90335 7022 ft 261 kts 274°
2026-04-24 19:00 -27.62498 -58.92379 7020 ft 260 kts 274°
2026-04-24 19:00 -27.62425 -58.94413 7023 ft 260 kts 274°
2026-04-24 19:01 -27.62352 -58.96452 7013 ft 260 kts 274°
2026-04-24 19:01 -27.62281 -58.98498 7010 ft 261 kts 274°
2026-04-24 19:01 -27.62211 -59.00540 7016 ft 260 kts 274°
2026-04-24 19:01 -27.62138 -59.02578 7019 ft 260 kts 274°
2026-04-24 19:02 -27.62066 -59.04612 7017 ft 259 kts 274°
2026-04-24 19:02 -27.61993 -59.06651 7015 ft 260 kts 274°
2026-04-24 19:02 -27.61923 -59.08664 7017 ft 260 kts 274°
2026-04-24 19:02 -27.61848 -59.10702 7011 ft 260 kts 275°
2026-04-24 19:03 -27.61618 -59.12717 7019 ft 259 kts 285°
2026-04-24 19:03 -27.60976 -59.14623 7696 ft 258 kts 297°
2026-04-24 19:03 -27.60191 -59.16420 9531 ft 255 kts 295°
2026-04-24 19:03 -27.59427 -59.18285 10796 ft 273 kts 295°
2026-04-24 19:04 -27.58566 -59.20301 11870 ft 292 kts 296°
2026-04-24 19:04 -27.57646 -59.22425 12949 ft 318 kts 296°
2026-04-24 19:04 -27.56622 -59.24809 13023 ft 349 kts 295°
2026-04-24 19:04 -27.55551 -59.27312 13026 ft 361 kts 295°
2026-04-24 19:05 -27.54464 -59.29839 13027 ft 364 kts 295°
2026-04-24 19:05 -27.53361 -59.32409 13025 ft 364 kts 295°
2026-04-24 19:05 -27.52256 -59.34973 13023 ft 364 kts 295°
2026-04-24 19:05 -27.51150 -59.37548 13024 ft 365 kts 295°
2026-04-24 19:06 -27.50042 -59.40118 13025 ft 364 kts 296°
2026-04-24 19:06 -27.48933 -59.42692 13034 ft 365 kts 295°
2026-04-24 19:06 -27.47822 -59.45266 13034 ft 366 kts 296°
2026-04-24 19:06 -27.46710 -59.47843 13034 ft 366 kts 295°
2026-04-24 19:07 -27.45792 -59.50513 13031 ft 366 kts 286°
2026-04-24 19:07 -27.45297 -59.53269 14396 ft 345 kts 280°
2026-04-24 19:07 -27.44917 -59.55813 16733 ft 316 kts 281°
2026-04-24 19:07 -27.44537 -59.58261 18379 ft 322 kts 281°
2026-04-24 19:08 -27.44176 -59.60744 19515 ft 327 kts 280°
2026-04-24 19:08 -27.43815 -59.63265 20895 ft 326 kts 280°
2026-04-24 19:08 -27.43445 -59.65784 22157 ft 327 kts 280°
2026-04-24 19:08 -27.43067 -59.68314 23437 ft 327 kts 280°
2026-04-24 19:09 -27.42701 -59.70845 24458 ft 329 kts 279°
2026-04-24 19:09 -27.42323 -59.73408 25386 ft 333 kts 280°
2026-04-24 19:09 -27.41923 -59.75985 26330 ft 336 kts 279°
2026-04-24 19:09 -27.41548 -59.78598 27182 ft 340 kts 279°
2026-04-24 19:10 -27.41162 -59.81237 28030 ft 343 kts 279°
2026-04-24 19:10 -27.40763 -59.83899 28850 ft 347 kts 279°
2026-04-24 19:10 -27.40362 -59.86591 29654 ft 351 kts 278°
2026-04-24 19:10 -27.39957 -59.89317 30404 ft 355 kts 278°
2026-04-24 19:11 -27.39548 -59.92070 31090 ft 358 kts 279°
2026-04-24 19:11 -27.39137 -59.94808 31740 ft 362 kts 279°
2026-04-24 19:11 -27.38718 -59.97614 32359 ft 365 kts 279°
2026-04-24 19:11 -27.38295 -60.00447 32960 ft 369 kts 279°
2026-04-24 19:12 -27.37868 -60.03296 33675 ft 369 kts 280°
2026-04-24 19:12 -27.37458 -60.06019 34482 ft 366 kts 280°
2026-04-24 19:12 -27.37043 -60.08836 35281 ft 363 kts 279°
2026-04-24 19:12 -27.36783 -60.11642 36076 ft 360 kts 276°
2026-04-24 19:13 -27.36615 -60.13530 36565 ft 358 kts 277°
2026-04-24 19:13 -27.36257 -60.17208 37430 ft 355 kts 277°
2026-04-24 19:13 -27.36000 -60.19966 38037 ft 354 kts 276°
2026-04-24 19:13 -27.35749 -60.22711 38607 ft 352 kts 276°
2026-04-24 19:14 -27.35496 -60.25445 39046 ft 351 kts 276°
2026-04-24 19:14 -27.35239 -60.28175 39405 ft 351 kts 276°
2026-04-24 19:14 -27.34984 -60.30902 39743 ft 351 kts 276°
2026-04-24 19:14 -27.34727 -60.33634 40073 ft 351 kts 276°
2026-04-24 19:15 -27.34472 -60.36366 40399 ft 351 kts 276°
2026-04-24 19:15 -27.34213 -60.39098 40713 ft 351 kts 276°
2026-04-24 19:15 -27.33957 -60.41829 41027 ft 351 kts 276°
2026-04-24 19:15 -27.33698 -60.44559 41312 ft 351 kts 276°
2026-04-24 19:16 -27.33181 -60.50016 41827 ft 351 kts 276°
2026-04-24 19:16 -27.32920 -60.52748 42071 ft 351 kts 276°
2026-04-24 19:16 -27.32661 -60.55480 42310 ft 351 kts 276°
2026-04-24 19:17 -27.32399 -60.58214 42540 ft 351 kts 276°
2026-04-24 19:17 -27.32142 -60.60905 42746 ft 351 kts 276°
2026-04-24 19:17 -27.31879 -60.63634 42965 ft 351 kts 276°
2026-04-24 19:17 -27.31617 -60.66371 43017 ft 355 kts 276°
2026-04-24 19:18 -27.31077 -60.71964 43019 ft 364 kts 276°
2026-04-24 19:18 -27.30521 -60.77704 43030 ft 373 kts 276°
2026-04-24 19:19 -27.29950 -60.83565 43032 ft 381 kts 276°
2026-04-24 19:19 -27.29369 -60.89523 43030 ft 386 kts 276°
2026-04-24 19:20 -27.28778 -60.95543 43032 ft 387 kts 276°
2026-04-24 19:20 -27.28184 -61.01563 43036 ft 387 kts 276°
2026-04-24 19:21 -27.27661 -61.07538 43033 ft 386 kts 275°
2026-04-24 19:21 -27.27223 -61.13541 43031 ft 385 kts 275°
2026-04-24 19:22 -27.26776 -61.19540 43029 ft 384 kts 275°
2026-04-24 19:22 -27.26331 -61.25527 43031 ft 384 kts 275°
2026-04-24 19:23 -27.25882 -61.31501 43032 ft 383 kts 275°
2026-04-24 19:23 -27.25432 -61.37469 43031 ft 384 kts 275°
2026-04-24 19:24 -27.24979 -61.43454 43032 ft 385 kts 275°
2026-04-24 19:24 -27.24520 -61.49474 43036 ft 387 kts 275°
2026-04-24 19:25 -27.24056 -61.55513 43035 ft 387 kts 275°
2026-04-24 19:25 -27.23597 -61.61482 43031 ft 385 kts 275°
2026-04-24 19:26 -27.23126 -61.67467 43033 ft 384 kts 276°
2026-04-24 19:26 -27.22488 -61.73428 43030 ft 384 kts 276°
2026-04-24 19:27 -27.21863 -61.79397 43033 ft 385 kts 277°
2026-04-24 19:27 -27.21226 -61.85381 43039 ft 386 kts 277°
2026-04-24 19:28 -27.20589 -61.91368 43039 ft 386 kts 277°
2026-04-24 19:28 -27.19947 -61.97361 43042 ft 386 kts 277°
2026-04-24 19:29 -27.19088 -62.05347 43040 ft 387 kts 277°
2026-04-24 19:30 -27.18334 -62.12321 43041 ft 386 kts 277°
2026-04-24 19:30 -27.17684 -62.18300 43042 ft 385 kts 277°
2026-04-24 19:31 -27.17035 -62.24254 43038 ft 383 kts 277°
2026-04-24 19:31 -27.16386 -62.30185 43034 ft 383 kts 277°
2026-04-24 19:32 -27.15731 -62.36139 43035 ft 385 kts 277°
2026-04-24 19:32 -27.15070 -62.42124 43037 ft 387 kts 277°
2026-04-24 19:33 -27.14405 -62.48119 43038 ft 386 kts 277°
2026-04-24 19:33 -27.13742 -62.54079 43039 ft 384 kts 277°
2026-04-24 19:34 -27.13078 -62.60023 43040 ft 383 kts 277°
2026-04-24 19:34 -27.12416 -62.65925 43034 ft 383 kts 277°
2026-04-24 19:35 -27.11747 -62.71877 43038 ft 384 kts 277°
2026-04-24 19:35 -27.11073 -62.77836 43035 ft 385 kts 277°
2026-04-24 19:36 -27.10397 -62.83802 43038 ft 385 kts 277°
2026-04-24 19:36 -27.09717 -62.89772 43040 ft 386 kts 277°
2026-04-24 19:37 -27.09034 -62.95748 43042 ft 386 kts 277°
2026-04-24 19:37 -27.08353 -63.01678 43043 ft 385 kts 277°
2026-04-24 19:38 -27.07667 -63.07629 43040 ft 384 kts 277°
2026-04-24 19:38 -27.06981 -63.13562 43039 ft 382 kts 277°
2026-04-24 19:39 -27.06750 -63.15559 43035 ft 382 kts 277°
2026-04-24 19:39 -27.05692 -63.24662 43037 ft 383 kts 277°
2026-04-24 19:40 -27.04997 -63.30603 43039 ft 384 kts 277°
2026-04-24 19:40 -27.04299 -63.36555 43044 ft 385 kts 277°
2026-04-24 19:41 -27.03602 -63.42478 43042 ft 384 kts 277°
2026-04-24 19:41 -27.02899 -63.48423 43041 ft 383 kts 277°
2026-04-24 19:42 -27.02197 -63.54341 43039 ft 382 kts 277°
2026-04-24 19:42 -27.01494 -63.60252 43043 ft 381 kts 277°
2026-04-24 19:43 -27.00853 -63.66119 43035 ft 381 kts 276°
2026-04-24 19:43 -27.00276 -63.72040 43033 ft 383 kts 276°
2026-04-24 19:44 -26.99686 -63.77990 43037 ft 384 kts 276°
2026-04-24 19:44 -26.99097 -63.83946 43040 ft 384 kts 276°
2026-04-24 19:45 -26.98504 -63.89894 43040 ft 383 kts 276°
2026-04-24 19:45 -26.97900 -63.95822 43041 ft 382 kts 278°
2026-04-24 19:46 -26.96609 -64.01539 43041 ft 382 kts 288°
2026-04-24 19:46 -26.94309 -64.06936 43037 ft 387 kts 297°
2026-04-24 19:47 -26.91036 -64.11791 43044 ft 395 kts 307°
2026-04-24 19:47 -26.86856 -64.15886 43040 ft 405 kts 317°
2026-04-24 19:48 -26.82280 -64.19577 43039 ft 405 kts 316°
2026-04-24 19:48 -26.75427 -64.25111 43038 ft 405 kts 317°
2026-04-24 19:49 -26.66300 -64.32471 43030 ft 404 kts 317°
2026-04-24 19:50 -26.57209 -64.39784 43027 ft 403 kts 317°
2026-04-24 19:51 -26.50359 -64.45285 42475 ft 404 kts 317°
2026-04-24 19:52 -26.45849 -64.48896 41424 ft 393 kts 317°
2026-04-24 19:52 -26.43649 -64.50661 40898 ft 388 kts 317°
2026-04-24 19:52 -26.41466 -64.52411 40400 ft 385 kts 317°
2026-04-24 19:52 -26.39293 -64.54154 39895 ft 386 kts 317°
2026-04-24 19:53 -26.37127 -64.55888 39387 ft 389 kts 317°
2026-04-24 19:53 -26.34918 -64.57655 38882 ft 392 kts 317°
2026-04-24 19:53 -26.30479 -64.61200 37811 ft 393 kts 318°
2026-04-24 19:54 -26.28249 -64.62985 37289 ft 396 kts 318°
2026-04-24 19:54 -26.25998 -64.64781 36765 ft 398 kts 318°
2026-04-24 19:54 -26.23739 -64.66582 36238 ft 400 kts 319°
2026-04-24 19:54 -26.21467 -64.68393 35711 ft 402 kts 319°
2026-04-24 19:55 -26.19963 -64.69594 35362 ft 403 kts 319°
2026-04-24 19:55 -26.16899 -64.72035 34649 ft 405 kts 319°
2026-04-24 19:55 -26.14599 -64.73867 34109 ft 408 kts 319°
2026-04-24 19:55 -26.12286 -64.75707 33537 ft 409 kts 319°
2026-04-24 19:56 -26.09996 -64.77529 33004 ft 412 kts 319°
2026-04-24 19:56 -26.07652 -64.79394 32460 ft 415 kts 319°
2026-04-24 19:56 -26.05294 -64.81267 31906 ft 417 kts 319°
2026-04-24 19:56 -26.02921 -64.83152 31355 ft 420 kts 319°
2026-04-24 19:57 -26.00533 -64.85049 30799 ft 423 kts 319°
2026-04-24 19:57 -25.98136 -64.86952 30239 ft 425 kts 319°
2026-04-24 19:57 -25.95730 -64.88858 29643 ft 425 kts 319°
2026-04-24 19:57 -25.93321 -64.90767 29080 ft 424 kts 319°
2026-04-24 19:58 -25.90930 -64.92662 28523 ft 421 kts 319°
2026-04-24 19:58 -25.88556 -64.94540 27968 ft 418 kts 319°
2026-04-24 19:58 -25.86192 -64.96410 27420 ft 414 kts 319°
2026-04-24 19:58 -25.83852 -64.98264 26886 ft 411 kts 319°
2026-04-24 19:59 -25.81532 -65.00099 26337 ft 408 kts 319°
2026-04-24 19:59 -25.79223 -65.01923 25800 ft 406 kts 319°
2026-04-24 19:59 -25.76925 -65.03739 25265 ft 404 kts 319°
2026-04-24 19:59 -25.74644 -65.05540 24739 ft 401 kts 319°
2026-04-24 20:00 -25.72405 -65.07308 24221 ft 400 kts 319°
2026-04-24 20:00 -25.70110 -65.09108 23691 ft 398 kts 320°
2026-04-24 20:00 -25.67758 -65.10668 23127 ft 399 kts 324°
2026-04-24 20:00 -25.65361 -65.12218 22598 ft 397 kts 323°
2026-04-24 20:01 -25.63003 -65.13788 22078 ft 395 kts 323°
2026-04-24 20:01 -25.60639 -65.15341 21562 ft 394 kts 324°
2026-04-24 20:01 -25.58271 -65.16872 21038 ft 392 kts 324°
2026-04-24 20:01 -25.55919 -65.18403 20525 ft 391 kts 324°
2026-04-24 20:02 -25.54374 -65.19416 20186 ft 390 kts 324°
2026-04-24 20:02 -25.51258 -65.21452 19497 ft 388 kts 324°
2026-04-24 20:02 -25.48929 -65.22960 18986 ft 385 kts 324°
2026-04-24 20:02 -25.46626 -65.24464 18478 ft 384 kts 324°
2026-04-24 20:03 -25.44330 -65.25965 17936 ft 383 kts 325°
2026-04-24 20:03 -25.42043 -65.27450 17426 ft 380 kts 325°
2026-04-24 20:03 -25.39798 -65.28905 16937 ft 378 kts 326°
2026-04-24 20:03 -25.37542 -65.30375 16439 ft 376 kts 326°
2026-04-24 20:04 -25.35269 -65.31852 15937 ft 375 kts 326°
2026-04-24 20:04 -25.33063 -65.33282 15450 ft 357 kts 326°
2026-04-24 20:04 -25.30984 -65.34627 14993 ft 339 kts 327°
2026-04-24 20:04 -25.28988 -65.35927 14555 ft 326 kts 327°
2026-04-24 20:05 -25.27077 -65.37173 14132 ft 315 kts 327°
2026-04-24 20:05 -25.25223 -65.38369 13719 ft 305 kts 328°
2026-04-24 20:05 -25.23400 -65.39551 13300 ft 296 kts 327°
2026-04-24 20:05 -25.21752 -65.40621 12934 ft 289 kts 328°
2026-04-24 20:06 -25.20083 -65.41700 12572 ft 287 kts 328°
2026-04-24 20:06 -25.18329 -65.42841 12191 ft 297 kts 328°
2026-04-24 20:06 -25.16546 -65.44005 11800 ft 301 kts 327°
2026-04-24 20:06 -25.14906 -65.45439 11404 ft 300 kts 319°
2026-04-24 20:07 -25.13838 -65.46434 11145 ft 300 kts 320°
2026-04-24 20:07 -25.11689 -65.48342 10629 ft 298 kts 321°
2026-04-24 20:07 -25.10069 -65.49799 10228 ft 297 kts 320°
2026-04-24 20:07 -25.08493 -65.51232 9829 ft 293 kts 321°
2026-04-24 20:08 -25.06938 -65.52637 9431 ft 284 kts 321°
2026-04-24 20:08 -25.05414 -65.54014 9055 ft 276 kts 321°
2026-04-24 20:08 -25.03949 -65.55334 8652 ft 272 kts 321°
2026-04-24 20:08 -25.02600 -65.56554 8285 ft 232 kts 321°
2026-04-24 20:09 -25.01381 -65.57656 7977 ft 224 kts 321°
2026-04-24 20:09 -25.00217 -65.58698 7685 ft 213 kts 321°
2026-04-24 20:09 -24.99023 -65.59595 7406 ft 209 kts 336°
2026-04-24 20:09 -24.97625 -65.60049 7136 ft 206 kts 352°
2026-04-24 20:10 -24.96213 -65.60059 6878 ft 202 kts
2026-04-24 20:10 -24.94878 -65.59653 6609 ft 200 kts 24°
2026-04-24 20:10 -24.93699 -65.58860 6335 ft 198 kts 39°
2026-04-24 20:10 -24.92661 -65.57856 6066 ft 198 kts 40°
2026-04-24 20:11 -24.91668 -65.56955 5829 ft 175 kts 39°
2026-04-24 20:11 -24.90800 -65.56063 5695 ft 170 kts 51°
2026-04-24 20:11 -24.90117 -65.54966 5632 ft 174 kts 58°
2026-04-24 20:11 -24.89531 -65.53963 5506 ft 142 kts 55°
2026-04-24 20:12 -24.88947 -65.53091 5132 ft 136 kts 52°
2026-04-24 20:12 -24.88356 -65.52327 4809 ft 127 kts 47°
2026-04-24 20:12 -24.87754 -65.51619 4605 ft 124 kts 49°
2026-04-24 20:12 -24.87185 -65.50869 4511 ft 131 kts 52°
2026-04-24 20:13 -24.86615 -65.50080 4308 ft 131 kts 52°
2026-04-24 20:13 -24.86056 -65.49284 4113 ft 132 kts 52°
2026-04-24 20:13 -24.85510 -65.48529 4021 ft 113 kts 52°
2026-04-24 20:13 -24.85098 -65.47951 4009 ft 76 kts 51°
2026-04-24 20:14 -24.84834 -65.47582 4011 ft 50 kts 52°
2026-04-24 20:14 -24.84655 -65.47331 4011 ft 35 kts 52°
2026-04-24 20:14 -24.84537 -65.47164 4013 ft 15 kts 51°
2026-04-24 20:14 -24.84504 -65.47108 4013 ft 7 kts 59°
2026-04-24 20:15 -24.84497 -65.47120 4002 ft 5 kts 233°
2026-04-24 20:15 -24.84547 -65.47180 4008 ft 16 kts 230°
2026-04-24 20:15 -24.84637 -65.47305 4005 ft 26 kts 232°
2026-04-24 20:15 -24.84763 -65.47481 4006 ft 30 kts 231°
2026-04-24 20:16 -24.84847 -65.47598 4006 ft 14 kts 242°
2026-04-24 20:16 -24.84798 -65.47680 4012 ft 15 kts 338°
2026-04-24 20:16 -24.84690 -65.47728 4011 ft 18 kts 338°
2026-04-24 20:16 -24.84585 -65.47778 4007 ft 6 kts 335°
2026-04-24 20:17 -24.84546 -65.47804 4005 ft 5 kts 306°
2026-04-24 20:17 -24.84514 -65.47894 4009 ft 7 kts 291°
2026-04-24 20:17 -24.84520 -65.47941 4011 ft 6 kts 225°
2026-04-24 20:18 -24.84540 -65.47954 4011 ft 4 kts 191°
2026-04-24 20:18 -24.84558 -65.47938 4011 ft 3 kts 98°
2026-04-24 20:18 -24.84547 -65.47927 4008 ft 2 kts 22°
2026-04-24 20:18 -24.84543 -65.47926 4008 ft 0 kts 22°